Location: Wellington
(41.3000°S, 174.7830°E)
Time: 05:32:04
(UTC+12:00)

Daily predictions for brighter satellites

Satellite Brightness Start Highest point End
(mag) Time Altitude Azimuth Time Altitude Azimuth Time Altitude Azimuth
Cosmos 2369 Rocket 3.6 04:06:05 33° SE 04:07:02 35° ESE 04:12:11 10° ENE
SL-16 R/B 4.0 04:15:47 22° S 04:15:47 22° S 04:17:44 10° SSE
Cosmos 1943 Rocket 3.1 04:17:46 43° ENE 04:17:46 43° ENE 04:21:42 10° NE
Cosmos 1745 Rocket 4.0 04:28:24 78° ENE 04:28:29 78° E 04:34:43 10° S
Meteor 1-11 4.2 04:37:21 78° E 04:37:21 78° E 04:42:58 10° SSE
H-2A R/B 3.0 04:36:38 10° SSE 04:40:19 47° ESE 04:40:19 47° ESE
Okean O Rocket 4.0 04:40:37 10° ENE 04:44:07 23° ESE 04:47:38 10° SSE
Cosmos 1603 3.6 04:51:37 62° NNW 04:52:37 86° ENE 04:58:19 10° SSE
Nadezhda 1 Rocket 3.9 04:46:53 10° S 04:53:15 74° W 04:59:37 10° N
Gbstr 26 Del rocket 4.4 04:53:41 42° SW 04:56:35 79° SE 05:04:45 10° ENE
Cosmos 1607 4.0 05:03:27 53° WSW 05:03:55 55° SW 05:10:04 10° SSE
USA 234 3.8 04:58:00 10° SE 05:04:02 39° SSW 05:05:11 36° SW
Cosmos 1709 Rocket 3.9 05:02:07 10° N 05:08:17 88° E 05:14:36 10° S
Lacrosse 5 3.9 05:11:00 15° SSW 05:11:21 15° S 05:14:20 10° SSE
Cosmos 1943 3.1 05:08:58 34° NNW 05:11:33 81° WSW 05:17:21 10° SSE
Cosmos 304 Rocket 3.6 05:15:51 30° SSW 05:18:18 80° WNW 05:23:08 10° NNE
Cosmos 2221 3.1 05:14:06 10° S 05:18:33 60° E 05:22:54 10° NNE
Cosmos 1452 Rocket 3.4 05:16:25 26° SSW 05:19:28 70° WNW 05:24:43 10° N
BREEZE-M DEB (TANK) 2.7 05:19:50 55° NNW 05:20:22 68° NNE 05:22:43 10° ESE
USA 276 3.0 05:22:50 44° SSE 05:22:50 44° SSE 05:25:24 10° SE
CZ-4B R/B 2.5 05:19:11 10° SSE 05:22:38 46° E 05:25:59 10° N
X-37B 1.6 05:24:29 38° N 05:24:51 40° NNE 05:27:58 10° E
CZ-3 R/B 3.7 05:11:15 19° WNW 05:25:11 42° N 05:32:03 10° ENE
MINOTAUR IV R/B 4.5 05:22:36 25° NNW 05:25:13 85° WSW 05:29:51 10° SSE
SL-8 R/B 4.4 05:29:07 30° SW 05:31:07 47° SSE 05:35:47 10° E
SL-6 R/B(2) 4.4 05:24:07 10° NNW 05:33:34 88° ENE 05:36:31 10° SE
MOS 1-B 4.3 05:28:30 10° N 05:34:13 61° WNW 05:40:01 10° SSW
Cosmos 1656 Rocket 3.6 05:30:13 10° SSW 05:35:54 89° WNW 05:41:26 10° NNE
SL-4 R/B 4.3 05:33:08 10° N 05:36:15 23° NE 05:39:34 10° ESE
Cosmos 2058 2.9 05:36:18 10° N 05:40:33 87° E 05:44:50 10° S
CZ-4B DEB 4.4 05:36:07 10° N 05:41:32 51° W 05:47:02 10° SSW
ARGOS Delta rocket 3.6 05:41:53 10° NNE 05:46:18 87° ESE 05:50:51 10° S
CZ-4B R/B 3.2 05:44:42 10° N 05:50:23 72° WNW 05:56:05 10° SSW
Cosmos 2369 Rocket 2.8 05:47:58 20° SW 05:50:59 34° WNW 05:56:00 10° NNW
CZ-4 R/B 4.3 05:48:32 10° ENE 05:51:14 17° ESE 05:53:55 10° SSE
ASTEX 1 4.2 05:47:35 10° NNW 05:51:52 28° W 05:56:13 10° SSW
Cosmos 1408 2.5 05:51:59 10° N 05:55:39 83° W 05:59:21 10° S
SL-16 R/B 4.2 05:57:40 10° SW 05:57:40 10° SW 05:58:14 10° SW
CZ-3A R/B 4.5 05:52:39 10° NNW 05:57:34 24° NNE 06:09:26 10° ENE
H-2A R/B 4.1 05:54:46 10° NW 05:56:25 17° WNW 05:56:25 17° WNW
Cosmos 1892 2.9 05:54:44 10° NNW 05:58:24 46° WSW 06:02:07 10° S
Cosmos 1943 Rocket 3.5 05:59:23 19° W 05:59:23 19° W 06:03:08 10° NW
Cosmos 1842 Rocket 4.0 05:55:51 10° SSW 06:00:01 39° W 06:04:06 10° NNW
H-2A R/B 3.4 05:57:02 10° NNW 06:00:29 32° W 06:03:55 10° SSW
Cosmos 2181 Rocket 4.1 05:55:07 10° SSW 06:01:31 58° W 06:07:47 10° NNW
ERS-2 3.4 06:01:46 10° SSW 06:04:36 21° WSW 06:04:40 21° WSW
Cosmos 1340 3.6 06:01:58 10° N 06:05:39 51° E 06:09:23 10° SSE
SMAP 3.0 06:01:17 10° N 06:05:56 64° WNW 06:10:39 10° SSW
ATLAS 5 CENTAUR R/B 3.7 06:02:09 10° SSW 06:06:52 27° SE 06:10:58 10° E
CORIOLIS 4.1 06:06:00 10° N 06:11:22 73° WNW 06:16:48 10° SSW
ERBS 3.5 06:10:50 20° WSW 06:12:14 26° SW 06:15:12 10° SSE
Okean-O 4.2 06:09:48 10° NE 06:13:56 39° ESE 06:18:08 10° S
YAOGAN 6 2.8 06:11:08 10° N 06:14:32 44° W 06:18:01 10° SSW
Cosmos 1110 Rocket 4.1 06:10:26 10° SSW 06:15:31 52° WNW 06:20:34 10° N
SAR-Lupe-4 4.1 06:13:00 10° S 06:16:22 36° WSW 06:19:42 10° NW
H-2A R/B 3.6 06:13:49 10° SSW 06:16:27 16° WSW 06:17:25 15° WSW
Cosmos 1869 4.4 06:14:46 10° SW 06:17:55 23° W 06:21:04 10° NW
ADEOS Rocket 3.2 06:12:28 10° S 06:18:51 72° WSW 06:25:53 10° NNW
Cosmos 1932 4.4 06:14:01 10° NW 06:20:11 79° WSW 06:26:23 10° SSE
Okean O Rocket 2.3 06:16:11 10° NNW 06:20:16 34° W 06:24:21 10° SSW
Envisat 3.4 06:15:56 10° NNW 06:20:44 41° W 06:25:37 10° SSW
SKYMED 2 4.1 06:17:48 10° SSE 06:22:13 66° E 06:26:34 10° N
Cosmos 1269 Rocket 4.1 06:18:03 10° NNW 06:23:18 59° WSW 06:28:37 10° SSE
Cosmos 1939 Rocket 4.0 06:19:34 10° NNE 06:23:37 50° ESE 06:27:40 10° S
Cosmos 1606 3.5 06:23:35 10° S 06:27:28 57° E 06:31:19 10° NNE
Cosmos 2184 Rocket 4.0 06:22:59 10° NNW 06:29:03 58° W 06:35:14 10° S
USA 81 4.3 06:24:16 10° NNW 06:29:20 46° W 06:34:29 10° S
Cosmos 2074 Rocket 4.1 06:24:04 10° NNW 06:30:14 55° W 06:36:29 10° S
Cosmos 1302 Rocket 4.0 06:25:07 10° SSW 06:30:30 85° WNW 06:35:47 10° NNE
Cosmos 1825 2.5 06:30:30 10° NNW 06:34:08 42° WSW 06:37:49 10° S
Cosmos 2151 3.0 06:30:54 10° NNW 06:35:12 65° W 06:39:35 10° S
Helios 1A Rocket 2.9 06:31:06 10° N 06:35:17 76° WNW 06:39:32 10° SSW
Shenzhou-11 Module 1.3 06:34:46 11° WSW 06:37:00 84° SSE 06:39:23 10° ENE
Nadezhda 3 Rocket 4.1 06:36:49 10° S 06:43:15 80° W 06:49:38 10° N
IRS-1C Rocket 4.2 06:39:49 10° N 06:45:03 63° WNW 06:50:22 10° SSW
FengYun 1-2 T 4.5 06:41:53 10° N 06:47:26 54° W 06:53:04 10° SSW
